User: anonymous   Login
Location: Newark
(48.9320°N, 2.2664°E)
Time: 22:39:35
(UTC+00:00)
Language:

Transit 4A - Orbit

View from above orbital plane
View from above orbital plane
View from above satellite
View from above satellite

Ground track
Ground track

The orbit data is extracted from the following two-line orbital elements,

1   116U 61015A   20047.74048835 -.00000054  00000-0  17751-4 0  9998
2   116  66.8103 145.7519 0068914  94.4246 266.4710 13.91766046975373
Epoch (UTC): 16 February 2020 17:46:18
Eccentricity: 0.0068914
inclination: 66.8103°
perigee height: 872 km
apogee height: 973 km
right ascension of ascending node: 145.7519°
argument of perigee: 94.4246°
revolutions per day: 13.91766046
mean anomaly at epoch: 266.4710°
orbit number at epoch: 97537

The dashed part of the orbit path shows where the satellite is in the earth's shadow,  

DLR